Flag for China Weather past 2 weeks in Chengdu, Sichuan, China

Now
86 °F

Scattered clouds.


Feels Like: 87 °F
Forecast: 71 / 79 °F
Wind: 3 mph from North

Location: Chengdu Airport

Current Time: Jul 8, 2015 at 12:47:10 PM

Latest Report: Jul 8, 2015 at 12:00 PM


Visibility: N/A

Pressure: 29.77 "Hg

Humidity: 49%

Dew point: 64 °F

Location of ChengduLocation

Historic Weather in Chengdu — Graph

°F

Chengdu temperature yesterday

Maximum temperature yesterday: 91 °F (at 3:00 PM)
Minimum temperature yesterday: 72 °F (at 5:00 AM)
Average temperature yesterday: 82 °F

Past Weeks' High & Low Weather Summary

 TemperatureHumidityPressure
High91 °F (Jul 1, 4:00 PM)94% (Jun 23, 11:00 AM)29.92 "Hg (Jun 23, 11:00 AM)
Low68 °F (Jul 4, 3:00 AM)36% (Jul 7, 3:00 PM)29.36 "Hg (Jun 26, 5:00 PM)
Average79 °F73%29.66 "Hg
* Reported Jun 23 11:00 AM — Jul 8 11:00 AM, Chengdu, Weather by CustomWeather, © 2015

Note: Actual official high and low records may vary slightly from our data, if they occured in-between our weather recording intervals... More about our weather records

Advertising

Chengdu weather history for previous 24 hours

 ConditionsComfort  
Time TempWeatherWind HumidityBarometerVisibility
11:00 AM
Wed, Jul 8
86 °FPassing clouds.3 mph52%29.77 "HgN/A
10:00 AM84 °FSunny.3 mph55%29.77 "Hg10 mi
9:00 AM82 °FPassing clouds.3 mph55%29.80 "Hg5 mi
8:00 AM81 °FClear.1 mph58%29.77 "Hg4 mi
7:00 AM79 °FClear.3 mph61%29.77 "Hg4 mi
6:00 AM75 °FClear.3 mph74%29.77 "Hg4 mi
5:00 AM75 °FClear.1 mph78%29.77 "Hg4 mi
4:00 AM75 °FClear.No wind78%29.74 "Hg4 mi
3:00 AM75 °FClear.No wind78%29.77 "Hg5 mi
2:00 AM77 °FClear.1 mph69%29.77 "Hg5 mi
1:00 AM77 °FClear.1 mph69%29.77 "Hg10 mi
12:00 AM77 °FClear.No wind69%29.80 "Hg10 mi
11:00 PM
Tue, Jul 7
82 °FPassing clouds.3 mph58%29.80 "HgN/A
10:00 PM84 °FPassing clouds.3 mph51%29.77 "HgN/A
9:00 PM84 °FPassing clouds.3 mph51%29.77 "HgN/A
8:00 PM86 °FScattered clouds.6 mph49%29.74 "HgN/A
7:00 PM88 °FScattered clouds.6 mph43%29.71 "HgN/A
6:00 PM88 °FScattered clouds.6 mph40%29.71 "HgN/A
5:00 PM90 °FScattered clouds.6 mph41%29.71 "HgN/A
4:00 PM90 °FScattered clouds.6 mph41%29.74 "HgN/A
3:00 PM91 °FScattered clouds.6 mph36%29.74 "HgN/A
2:00 PM88 °FScattered clouds.6 mph43%29.77 "HgN/A
1:00 PM86 °FScattered clouds.3 mph46%29.80 "HgN/A
12:00 PM88 °FPassing clouds.6 mph43%29.80 "HgN/A
Weather by CustomWeather, © 2015

See weather overviewHow to use our weather pages